• en Suisse
  • Liste des pays
  • À 7 jours
  • Température de l'eau
  • Carte satellitaire
  • Carte météo
  • Widgets météo
  • user-avatar
    Se connecter

    Météo par heure à Førde

    Ce jour, 23 Novembre, Jeudi

    Heure Température Précipitation Vent Pression Humidité
    00:00 -4°C° 1 mm 4 m/s 682 mmHg 95%
    01:00 -4°C° 1,3 mm 4 m/s 681 mmHg 95%
    02:00 -4°C° 1,3 mm 4 m/s 681 mmHg 95%
    03:00 -2°C° 1,3 mm 3 m/s 680 mmHg 96%
    04:00 -2°C° 1,7 mm 3 m/s 680 mmHg 96%
    05:00 -2°C° 1,7 mm 3 m/s 679 mmHg 96%
    06:00 +1°C° 0 mm 2 m/s 679 mmHg 97%
    07:00 +1°C° 1,2 mm 2 m/s 679 mmHg 97%
    08:00 +1°C° 1,2 mm 2 m/s 679 mmHg 97%
    09:00 +2°C° 1,2 mm 1 m/s 679 mmHg 97%
    10:00 +2°C° 1,4 mm 2 m/s 678 mmHg 97%
    11:00 +2°C° 1,4 mm 2 m/s 678 mmHg 98%
    12:00 +2°C° 0 mm 2 m/s 679 mmHg 98%
    13:00 +1°C° 1,7 mm 3 m/s 678 mmHg 98%
    14:00 0°C° 1,7 mm 3 m/s 678 mmHg 98%
    15:00 0°C° 1,7 mm 3 m/s 678 mmHg 97%
    16:00 -1°C° 1,8 mm 4 m/s 679 mmHg 96%
    17:00 -1°C° 1,8 mm 5 m/s 680 mmHg 95%
    18:00 -3°C° 1,8 mm 6 m/s 681 mmHg 94%
    19:00 -3°C° 0,8 mm 6 m/s 682 mmHg 93%
    20:00 -3°C° 0,8 mm 6 m/s 683 mmHg 92%
    21:00 -3°C° 0,8 mm 6 m/s 684 mmHg 92%
    22:00 -4°C° 0,6 mm 7 m/s 684 mmHg 90%
    23:00 -5°C° 0,6 mm 8 m/s 685 mmHg 88%

    Demain, 24 Novembre, Vendredi

    Heure Température Précipitation Vent Pression Humidité
    00:00 -5°C° 0,6 mm 9 m/s 685 mmHg 87%
    01:00 -5°C° 0,4 mm 10 m/s 685 mmHg 85%
    02:00 -5°C° 0,4 mm 10 m/s 685 mmHg 83%
    03:00 -6°C° 0,4 mm 11 m/s 686 mmHg 82%
    04:00 -6°C° 0,9 mm 11 m/s 686 mmHg 84%
    05:00 -6°C° 0,9 mm 12 m/s 686 mmHg 86%
    06:00 -6°C° 0,9 mm 12 m/s 686 mmHg 88%
    07:00 -6°C° 1,2 mm 12 m/s 687 mmHg 88%
    08:00 -6°C° 1,2 mm 12 m/s 687 mmHg 87%
    09:00 -4°C° 1,2 mm 11 m/s 688 mmHg 87%
    10:00 -4°C° 0,8 mm 11 m/s 688 mmHg 87%
    11:00 -4°C° 0,8 mm 11 m/s 689 mmHg 86%
    12:00 -4°C° 0,8 mm 11 m/s 689 mmHg 85%
    13:00 -4°C° 0,6 mm 10 m/s 690 mmHg 85%
    14:00 -5°C° 0,6 mm 10 m/s 690 mmHg 85%
    15:00 -5°C° 0,6 mm 10 m/s 691 mmHg 85%
    16:00 -5°C° 0,5 mm 10 m/s 691 mmHg 86%
    17:00 -5°C° 0,5 mm 9 m/s 691 mmHg 86%
    18:00 -5°C° 0,5 mm 9 m/s 691 mmHg 87%
    19:00 -5°C° 0,6 mm 9 m/s 691 mmHg 87%
    20:00 -5°C° 0,6 mm 9 m/s 691 mmHg 88%
    21:00 -5°C° 0,6 mm 9 m/s 692 mmHg 89%
    22:00 -5°C° 0,8 mm 8 m/s 692 mmHg 89%
    23:00 -5°C° 0,8 mm 8 m/s 692 mmHg 90%

    Après-demain, 25 Novembre, Samedi

    Heure Température Précipitation Vent Pression Humidité
    00:00 -5°C° 0,8 mm 8 m/s 692 mmHg 91%
    01:00 -6°C° 0,8 mm 8 m/s 691 mmHg 90%
    02:00 -6°C° 0,8 mm 8 m/s 691 mmHg 89%
    03:00 -6°C° 0,8 mm 8 m/s 691 mmHg 89%
    04:00 -6°C° 0,4 mm 8 m/s 690 mmHg 89%
    05:00 -6°C° 0,4 mm 8 m/s 690 mmHg 88%
    06:00 -6°C° 0,4 mm 8 m/s 690 mmHg 88%
    07:00 -6°C° 1,2 mm 8 m/s 690 mmHg 90%
    08:00 -6°C° 1,2 mm 8 m/s 689 mmHg 91%
    09:00 -6°C° 1,2 mm 8 m/s 689 mmHg 93%
    10:00 -4°C° 1,7 mm 7 m/s 689 mmHg 93%
    11:00 -4°C° 1,7 mm 7 m/s 690 mmHg 94%
    12:00 -4°C° 1,7 mm 6 m/s 690 mmHg 94%
    13:00 -4°C° 1,2 mm 6 m/s 690 mmHg 94%
    14:00 -3°C° 1,2 mm 6 m/s 690 mmHg 95%
    15:00 -2°C° 1,2 mm 5 m/s 690 mmHg 95%
    16:00 -2°C° 1,2 mm 5 m/s 690 mmHg 95%
    17:00 -3°C° 1,2 mm 4 m/s 690 mmHg 96%
    18:00 -3°C° 1,2 mm 4 m/s 690 mmHg 96%
    19:00 -3°C° 1 mm 4 m/s 690 mmHg 96%
    20:00 -3°C° 1 mm 4 m/s 690 mmHg 95%
    21:00 -2°C° 1 mm 5 m/s 690 mmHg 95%
    22:00 -4°C° 0,5 mm 5 m/s 690 mmHg 94%
    23:00 -4°C° 0,5 mm 5 m/s 690 mmHg 93%

    26 Novembre, Dimanche

    Heure Température Précipitation Vent Pression Humidité
    00:00 -4°C° 0,5 mm 5 m/s 690 mmHg 92%
    01:00 -4°C° 0,6 mm 5 m/s 690 mmHg 92%
    02:00 -4°C° 0,6 mm 4 m/s 690 mmHg 92%
    03:00 -4°C° 0,6 mm 4 m/s 690 mmHg 92%
    04:00 -4°C° 0,6 mm 4 m/s 690 mmHg 92%
    05:00 -4°C° 0,6 mm 4 m/s 690 mmHg 92%
    06:00 -4°C° 0,6 mm 3 m/s 690 mmHg 93%
    07:00 -5°C° 0,3 mm 3 m/s 691 mmHg 92%
    08:00 -5°C° 0,3 mm 3 m/s 691 mmHg 92%
    09:00 -5°C° 0,3 mm 3 m/s 691 mmHg 91%
    10:00 -5°C° 0,1 mm 3 m/s 692 mmHg 90%
    11:00 -5°C° 0,1 mm 3 m/s 693 mmHg 90%
    12:00 -5°C° 0,1 mm 3 m/s 693 mmHg 89%
    13:00 -6°C° 0 mm 3 m/s 694 mmHg 88%
    14:00 -7°C° 0 mm 3 m/s 695 mmHg 86%
    15:00 -8°C° 0 mm 3 m/s 695 mmHg 85%
    16:00 -8°C° 0 mm 3 m/s 696 mmHg 83%
    17:00 -7°C° 0 mm 2 m/s 697 mmHg 82%
    18:00 -8°C° 0 mm 2 m/s 697 mmHg 81%
    19:00 -8°C° 0 mm 2 m/s 698 mmHg 80%
    20:00 -8°C° 0 mm 2 m/s 698 mmHg 80%
    21:00 -8°C° 0 mm 2 m/s 699 mmHg 79%
    22:00 -7°C° 0,1 mm 2 m/s 699 mmHg 82%
    23:00 -7°C° 0,1 mm 2 m/s 700 mmHg 85%

    27 Novembre, Lundi

    Heure Température Précipitation Vent Pression Humidité
    00:00 -6°C° 0,1 mm 2 m/s 700 mmHg 87%
    01:00 -6°C° 0,2 mm 2 m/s 700 mmHg 89%
    02:00 -5°C° 0,2 mm 2 m/s 701 mmHg 91%
    03:00 -5°C° 0,2 mm 2 m/s 701 mmHg 93%
    04:00 -5°C° 0,2 mm 2 m/s 701 mmHg 93%
    05:00 -4°C° 0,2 mm 2 m/s 701 mmHg 93%
    06:00 -4°C° 0,2 mm 2 m/s 701 mmHg 93%
    07:00 -4°C° 0,2 mm 2 m/s 702 mmHg 94%
    08:00 -4°C° 0,2 mm 2 m/s 702 mmHg 94%
    09:00 -3°C° 0,2 mm 2 m/s 702 mmHg 94%
    10:00 -3°C° 0,2 mm 2 m/s 702 mmHg 94%
    11:00 -3°C° 0,2 mm 2 m/s 702 mmHg 94%
    12:00 -3°C° 0,2 mm 2 m/s 702 mmHg 94%
    13:00 -3°C° 0,2 mm 2 m/s 702 mmHg 94%
    14:00 -4°C° 0,2 mm 2 m/s 702 mmHg 94%
    15:00 -2°C° 0,2 mm 1 m/s 702 mmHg 93%
    16:00 -3°C° 0,1 mm 1 m/s 702 mmHg 93%
    17:00 -3°C° 0,1 mm 1 m/s 702 mmHg 93%
    18:00 -4°C° 0,1 mm 1 m/s 702 mmHg 93%
    19:00 -4°C° 0 mm 1 m/s 702 mmHg 93%
    20:00 -7°C° 0 mm 2 m/s 702 mmHg 92%
    21:00 -7°C° 0 mm 2 m/s 702 mmHg 92%
    22:00 -7°C° 0 mm 2 m/s 702 mmHg 91%
    23:00 -7°C° 0 mm 2 m/s 702 mmHg 90%

    28 Novembre, Mardi

    Heure Température Précipitation Vent Pression Humidité
    00:00 -8°C° 0 mm 2 m/s 702 mmHg 89%
    01:00 -8°C° 0 mm 2 m/s 702 mmHg 88%
    02:00 -8°C° 0 mm 2 m/s 702 mmHg 87%
    03:00 -8°C° 0 mm 2 m/s 702 mmHg 86%
    04:00 -8°C° 0 mm 2 m/s 702 mmHg 85%
    05:00 -9°C° 0 mm 3 m/s 702 mmHg 84%
    06:00 -9°C° 0 mm 3 m/s 702 mmHg 84%
    07:00 -9°C° 0 mm 3 m/s 702 mmHg 83%
    08:00 -9°C° 0 mm 3 m/s 703 mmHg 82%
    09:00 -9°C° 0 mm 3 m/s 703 mmHg 81%
    10:00 -9°C° 0 mm 3 m/s 703 mmHg 80%
    11:00 -8°C° 0 mm 3 m/s 703 mmHg 80%
    12:00 -8°C° 0 mm 3 m/s 703 mmHg 80%
    13:00 -9°C° 0 mm 3 m/s 703 mmHg 78%
    14:00 -9°C° 0 mm 3 m/s 703 mmHg 77%
    15:00 -10°C° 0 mm 3 m/s 703 mmHg 76%
    16:00 -10°C° 0 mm 3 m/s 703 mmHg 76%
    17:00 -12°C° 0 mm 3 m/s 703 mmHg 76%
    18:00 -12°C° 0 mm 3 m/s 704 mmHg 75%
    19:00 -12°C° 0 mm 3 m/s 704 mmHg 75%
    20:00 -12°C° 0 mm 3 m/s 704 mmHg 75%
    21:00 -12°C° 0 mm 3 m/s 704 mmHg 75%
    22:00 -12°C° 0 mm 3 m/s 704 mmHg 74%
    23:00 -13°C° 0 mm 3 m/s 704 mmHg 74%
    Voir plus